Location: Molino di Ancona
(43.6167°N, 13.3667°E)
Time: 00:22:45
(UTC+00:00)

NOAA 6 - Pass Details

Date: 15 December 2019
Orbit: 773 x 787 km, 98.7° (Epoch: 19 January)

Event Time Altitude Azimuth Distance (km) Brightness Sun altitude
Rises 05:31:04 0° 6° (N) 3,261 7.1 -10.7°
Reaches altitude 10° 05:33:30 10° 359° (N) 2,330 6.3 -10.3°
Maximum altitude 05:38:15 40° 292° (WNW) 1,143 4.4 -9.5°
Drops below altitude 10° 05:42:59 10° 224° (SW) 2,322 6.3 -8.8°
Sets 05:45:24 0° 217° (SW) 3,248 7.1 -8.4°
